www.pogodaiklimat.ru

Погода и климат >> Архив погоды >> Россия >> Забайкальский край >> Борзя


АРХИВ ПОГОДЫ в Борзе

Время (UTC), дата Ветер
(напр.,м/с)
 
Видим.   Явления Облачность Т
(С)
Тd
(С)
f
(%)
Тe
(С)
Тes
(С)
Комфортность P
(гПа)
Po
(гПа)
Тmin
(С)
Tmax
(С)
R
(мм)
R24
(мм)
S
(см)
18 9.06 В 2 н/о 5/0
[Ac lent Ci sp]
+10.1 +8.9 92 +8 +8 1009.5 931.4
21 9.06 В 2 50 км 3/0
[Ci fib]
+9.7 +7.8 88 +8 +8 1009.3 931.1
00 10.06 штиль 0 50 км 1/0
[Ci fib]
+18.8 +12.0 65 +19 +29 1006.4 930.8 +8.3
03 10.06 Ю 3 50 км 3/1 1000 м
[Cu med, cong Ci fib]
+25.0 +8.8 36 +26 +37 жарко 1003.7 929.7
06 10.06 З 3 50 км 9/3 1000 м
[Cb calv Ci sp]
+28.1 +7.3 27 +27 +35 жарко 1000.4 927.4
09 10.06 ЮЗ 3 50 км 9/4 1000 м
[Cb calv Ci sp]
+28.8 +5.7 23 +28 +30 жарко 998.7 926.0
12 10.06 В 4 50 км 9/3 600 м
[Cb calv Ci sp]
+23.2 +8.6 39 +24 +24 комфорт 1000.5 926.4 +29.0
15 10.06 В 3 н/о зарница 4/0
[Ci sp]
+20.2 +7.4 43 +21 +21 комфорт 1001.9 926.9
18 10.06 Ю 3
{12}
н/о 4/0
[Ci sp]
+18.9 +8.2 50 +20 +20 1002.7 927.3
21 10.06 СВ 2 50 км 4/0
[Ci sp]
+12.4 +9.1 80 +12 +12 1004.8 927.7
00 11.06 СВ 2 50 км 9/0
[Ci sp]
+21.3 +12.1 56 +23 +29 комфорт 1002.3 927.7 +12.4
03 11.06 ЮВ 3 50 км 9/1 1000 м
[Cu hum Ci sp]
+27.0 +9.8 34 +27 +38 жарко 999.6 926.4
06 11.06 Ю 6-11
{11}
50 км 9/3 1000 м
[Cu hum Ac lent Ci sp]
+27.5 +9.0 31 +28 +30 жарко 998.3 925.4
09 11.06 Ю 5-10
{11}
50 км 9/4 1000 м
[Cb calv Ac lent Ci sp]
+27.6 +8.7 30 +27 +28 жарко 996.9 924.0
12 11.06 ЮЗ 3
{11}
50 км 9/3 1000 м
[Cb calv Ac cuf Ci sp]
+24.3 +10.3 41 +25 +25 комфорт 998.7 925.0 +28.8
15 11.06 Ю 2
{11}
н/о слаб. ливневой дождь 10/8
[Cb calv Ac As]
+22.2 +10.3 47 +24 +24 комфорт 1000.7 926.3
18 11.06 З 5 н/о {ливн. осадки} 10/6 600 м
[Cb calv Ac As]
+19.2 +12.6 66 +20 +20 1002.9 927.7
21 11.06 СЗ 3 50 км 9/1 1000 м
[Cb calv Ac As Ci sp]
+14.6 +7.6 63 +14 +14 1005.5 928.8
00 12.06 СЗ 8-14
{14}
50 км 3/0
[Ci sp]
+17.3 +7.2 51 +16 +17 1005.6 929.6 +14.2 0.0
03 12.06 СЗ 6
{14}
50 км 6/3 1000 м
[Cu med, cong Ci sp]
+20.1 +8.6 47 +21 +25 комфорт 1004.2 929.0
06 12.06 СЗ 8-13
{13}
50 км 8/5 1000 м
[Cb calv Ci sp]
+21.6 +6.1 36 +22 +23 комфорт 1002.7 928.0
09 12.06 СЗ 8-11
{15}
50 км 9/3 600 м
[Cb calv Ci sp]
+20.8 +4.8 35 +21 +22 комфорт 1002.4 927.5
12 12.06 СЗ 4
{15}
50 км 9/4 1000 м
[Cb calv Ci sp]
+18.7 +4.9 40 +19 +19 1003.6 928.1 +22.0
15 12.06 З 2 н/о 9/3 1000 м
[Cu hum Ac lent Ci sp]
+13.5 +4.4 54 +13 +13 1005.3 928.3
18 12.06 С 2 н/о 5/3 600 м
[Cb calv Ci sp]
+11.1 +2.3 55 +10 +10 1006.6 928.9
21 12.06 СЗ 5 50 км 3/0
[Ci sp]
+10.6 +5.6 71 +8 +8 1008.0 930.1
00 13.06 С 7-11
{11}
50 км 6/1 1000 м
[Cu med, cong Ac lent Ci sp]
+14.1 +3.8 50 +12 +13 1007.6 930.6 +8.3
03 13.06 С 6-11
{12}
50 км 9/3 600 м
[Cu hum Ac trans Ci sp]
+17.1 +4.2 42 +16 +19 1006.9 930.7
06 13.06 С 8-15
{15}
50 км 9/5 600 м
[Cu med, cong Ci sp]
+18.3 +4.6 40 +18 +19 1006.5 930.7
09 13.06 С 6-10
{15}
50 км 9/6 600 м
[Cu med, cong Ac lent Ci sp]
+18.1 +3.1 37 +18 +18 1007.0 931.0
12 13.06 СВ 3
{11}
50 км 3/1 600 м
[Sc diur, vesp Ci sp]
+15.7 +4.7 48 +15 +15 1008.7 932.0 +19.0
15 13.06 В 2 н/о ясно +11.9 +5.0 63 +11 +11 1011.2 933.4
18 13.06 штиль 0 н/о ясно +6.4 +4.1 85 +5 +5 1013.8 934.3
21 13.06 СВ 2 50 км 3/0
[Ci fib]
+4.1 +3.1 93 +1 +1 1015.3 935.0
00 14.06 СВ 2 50 км 3/0
[Ci fib]
+14.5 +7.0 61 +14 +21 1012.4 935.2 +3.8
03 14.06 СЗ 2 50 км 3/0
[Ci sp]
+20.5 +5.4 37 +22 +37 комфорт 1010.2 934.6
06 14.06 С 2 50 км 9/1 1000 м
[Cu hum Ci sp]
+22.6 +3.5 29 +23 +34 комфорт 1008.3 933.3
09 14.06 СЗ 2 50 км 9/1 1000 м
[Cu hum Ci sp]
+23.8 +3.6 27 +23 +27 комфорт 1006.9 932.3
12 14.06 ЮЗ 1 50 км 4/0
[Ac cuf Ci sp]
+21.4 +5.9 36 +22 +22 комфорт 1008.1 932.9 +24.4
15 14.06 В 3 н/о ясно +14.2 +6.4 59 +13 +13 1011.3 934.0
18 14.06 ЮВ 4
{11}
н/о ясно +15.7 +5.3 50 +15 +15 1011.4 934.5
21 14.06 ЮВ 2 50 км 3/0
[Ci fib]
+13.9 +6.3 60 +14 +14 1013.0 935.6
00 15.06 Ю 3 50 км 9/0
[Ci sp]
+19.4 +6.7 44 +20 +25 1011.7 935.8 +12.1
03 15.06 ЮВ 3 50 км 9/0
[Ci sp]
+22.3 +5.3 33 +23 +34 комфорт 1010.2 935.0
06 15.06 Ю 3 50 км 9/4 1000 м
[Cu hum Ci sp]
+24.3 +5.0 29 +24 +30 комфорт 1008.0 933.5
09 15.06 ЮВ 4 50 км 9/4 1000 м
[Cu hum Ci sp]
+23.6 +4.2 28 +23 +25 комфорт 1007.4 932.8
12 15.06 ЮВ 3 50 км 9/0
[Ac lent Ci sp]
+20.4 +5.4 37 +21 +21 комфорт 1008.6 933.1 +24.4
15 15.06 ЮВ 3 н/о 9/0
[Ci sp]
+17.2 +4.5 43 +17 +17 1009.9 933.5
18 15.06 СВ 2 н/о 4/0
[Ci sp]
+8.8 +5.9 82 +7 +7 1012.4 933.7
21 15.06 В 3 50 км 6/0
[Ci sp]
+8.4 +5.6 83 +6 +6 1012.4 933.6
00 16.06 ЮВ 5 50 км 8/0
[Ci fib]
+18.4 +5.7 43 +18 +21 1009.6 933.5 +7.9
03 16.06 Ю 5-10
{10}
50 км 9/1 1000 м
[Cu hum Ci fib]
+22.8 +3.5 28 +23 +29 комфорт 1008.1 933.2
06 16.06 Ю 4
{11}
50 км 9/1 1000 м
[Cu hum Ci fib]
+25.0 +3.0 24 +24 +32 комфорт 1006.3 932.0
09 16.06 Ю 4
{10}
50 км 8/0
[Ci fib]
+24.8 +0.2 20 +23 +26 комфорт 1005.0 930.8
12 16.06 ЮВ 3 50 км 8/0
[Ac lent Ci sp]
+21.6 +0.5 25 +21 +21 комфорт 1005.9 930.9 +25.4
15 16.06 СВ 1 н/о 6/0
[Ac lent Ci sp]
+9.3 +3.9 69 +9 +9 1010.1 931.6

 

Местоположение метеостанции Борзя (Забайкальский край, Россия): широта 50.40 долгота 116.50 высота над уровнем моря 676 м.

В архиве по умолчанию представлена погода в Борзе за последнюю неделю. Архивные данные за месяц целиком и за предыдущие месяцы, начиная с января 2011 года, Вы можете получить, выбрав интересующий диапазон дат из раскрывающегося списка и нажав кнопку "Ввод!".


*Определитесь, кто Вы:
робот инопланетянин человек

Внимание! Время в таблицах - всемирное. Для получения местного времени необходимо прибавить поправку, которая равна 9 ч.

Смотрите также архив погоды в соседних городах и на ближайших метеорологических станциях:

Погода в Бырке (Забайкальский край, Россия) (52 км)
Погода в Соловьевске (Забайкальский край, Россия) (80 км)
Погода в Оловянной (Забайкальский край, Россия) (93 км)
Погода в Нижнем Цасучее (Забайкальский край, Россия) (99 км)
Погода в Забайкальске (Забайкальский край, Россия) (103 км)
Погода в Александровском Заводе (Забайкальский край, Россия) (114 км)
Погода в Балее (Забайкальский край, Россия) (129 км)
Погода в Кайластуе (Забайкальский край, Россия) (143 км)
Погода в Могойтуе (Забайкальский край, Россия) (148 км)
Погода в Шелопугино (Забайкальский край, Россия) (156 км)

Пояснения к столбцам:

Ветер - указаны скорость ветра в м/с - средняя за 10 мин, порывы в срок и между сроками (в фигурных скобках) и направление, откуда дует ветер: С - северный, СВ - северо-восточный, В - восточный, ЮВ - юго-восточный, Ю - южный, ЮЗ - юго-западный, З - западный, СЗ - северо-западный.
Видимость - горизонтальная дальность видимости в метрах или километрах. При видимости от 1 до 10 км при отсутствии осадков обычно наблюдается дымка, при ухудшении видимости до 1 км и менее - туман. В сухую погоду видимость может ухудшаться дымом, пылью или мглою.
Явления - указаны атмосферные явления, наблюдавшиеся в срок или в последний час перед сроком; фигурными скобками обозначены явления, наблюдавшиеся между сроками (за 1-3 часа до срока); квадратными скобками обозначены град или гололедные отложения с указанием их диаметра в мм.
Облачность - указаны через наклонную черту общая и нижняя облачность в баллах и высота нижней границы облаков в метрах; квадратными скобками обозначены формы облаков: Ci - перистые, Cs - перисто-слоистые, Cc - перисто-кучевые, Ac - высококучевые, As - высокослоистые, Sc - слоисто-кучевые, Ns - слоисто-дождевые, Cu - кучевые, Cb - кучево-дождевые. Подробнее классификацию облаков см. в Атласе облаков (PDF).
T - Температура воздуха - температура, измеренная на высоте 2 м над землей.
Td - Температура точки росы - температура, при понижении до которой содержащийся в воздухе водяной пар достигнет насыщения.
f - Относительная влажность воздуха - влажноcть воздуха, измеренная на высоте 2 м над землей.
Te - Эффективная температура - температура, которую ощущает одетый по сезону человек в тени. Характеристика душности погоды. При расчете учитывается влияние влажности воздуха и скорости ветра на теплоощущения человека.
Tes - Эффективная температура на солнце - температура, которую ощущает человек, с поправкой на солнечный нагрев. Характеристика знойности погоды. Зависит от высоты солнца над горизонтом, облачности и скорости ветра. Ночью, в пасмурную погоду, а также при ветре 12 м/с и более поправка равна нулю.
P - Атмосферное давление - приведенное к уровню моря атмосферное давление.
Po - Атмосферное давление - измеренное на уровне метеостанции атмосферное давление.
Tmin - Минимальная температура - минимум температуры воздуха на высоте 2 м над землей.
Tmax - Максимальная температура - максимум температуры воздуха на высоте 2 м над землей.
R - Количество осадков - Количество выпавших осадков за период времени, мм. При наведении курсора мыши на число - период времени, за который выпало указанное количество осадков.
R24 - Количество осадков - Количество выпавших осадков за 24 часа, мм.
S - Снежный покров - Высота снежного покрова, см. При наведении курсора мыши на число - состояние снежного покрова и степень покрытия местности в баллах.